Time[GMT],air_temperature[C](-3m),wind_speed[m/s](-4m),wind_gust[m/s](-4m),barometric_pressure[millibars](-3m),wind_2_direction[degrees_true](-4m),wind_2_gust[m/s](-4m),wind_2_gust_1s[m/s](-4m),wind_2_min[m/s](-4m),wind_2_percent_good[1](-4m),wind_2_speed[m/s](-4m),wind_direction[degrees_true](-4m),wind_gust_1s[m/s](-4m),wind_min[m/s](-4m)
2023-03-15 15:00,26.9,,,1016.28,124.90,7.22,8.20,3.84,1.00,6.12,,,
2023-03-15 16:00,27.0,,,1015.86,128.80,6.98,7.93,3.06,1.00,5.69,,,
2023-03-15 17:00,27.0,,,1015.26,134.50,6.84,7.84,3.22,1.00,5.71,,,
2023-03-15 18:00,27.1,,,1014.48,138.30,6.47,7.51,3.29,1.00,5.43,,,
2023-03-15 19:00,27.2,,,1014.06,124.70,5.65,6.94,2.20,1.00,4.80,,,
2023-03-15 20:00,27.3,,,1013.70,137.40,5.90,6.65,2.42,1.00,4.76,,,
2023-03-15 21:00,27.4,,,1013.76,148.00,4.93,5.97,2.43,1.00,4.11,,,
2023-03-15 22:00,27.2,,,1013.70,146.10,5.49,6.48,2.56,1.00,4.80,,,
2023-03-15 23:00,27.0,,,1014.12,154.50,6.51,7.32,2.82,1.00,5.53,,,
2023-03-16 00:00,26.9,,,1014.36,154.20,6.26,7.04,3.31,1.00,5.48,,,
2023-03-16 01:00,26.8,,,1014.48,156.40,8.00,8.86,4.58,1.00,6.86,,,
2023-03-16 02:00,26.8,,,1014.84,160.40,6.11,7.37,2.54,1.00,4.98,,,
2023-03-16 03:00,26.7,,,1014.90,151.60,6.00,7.46,2.41,1.00,4.95,,,
2023-03-16 04:00,26.6,,,1014.60,162.80,6.00,6.96,2.68,1.00,4.78,,,
2023-03-16 05:00,26.4,,,1014.12,161.20,5.42,6.07,2.35,1.00,4.05,,,
2023-03-16 06:00,26.5,,,1013.28,170.90,6.24,6.74,2.88,1.00,4.98,,,
2023-03-16 07:00,26.4,,,1012.62,183.80,6.01,6.81,2.42,1.00,4.97,,,
2023-03-16 08:00,26.3,,,1012.44,198.80,5.13,6.76,1.60,1.00,3.98,,,
2023-03-16 09:00,26.3,,,1012.50,191.40,5.95,6.62,2.35,1.00,4.55,,,
2023-03-16 10:00,26.3,,,1013.16,193.80,5.35,6.25,2.52,1.00,4.59,,,
2023-03-16 11:00,26.4,,,1013.64,182.50,6.13,6.88,2.87,1.00,4.72,,,
2023-03-16 12:00,26.9,,,1014.12,180.90,6.15,7.60,2.73,1.00,5.30,,,
2023-03-16 13:00,27.0,,,1014.60,185.70,5.74,6.62,2.74,1.00,4.80,,,
2023-03-16 14:00,27.2,,,1015.26,191.40,4.91,6.04,1.93,1.00,3.90,,,
2023-03-16 15:00,27.4,,,1015.08,212.00,6.26,6.82,3.21,1.00,4.90,,,
2023-03-16 16:00,27.3,,,1014.42,214.40,6.61,7.84,2.93,1.00,5.40,,,
2023-03-16 17:00,27.4,,,1013.94,233.00,6.02,7.48,2.04,1.00,4.79,,,
2023-03-16 18:00,27.4,,,1013.40,250.50,6.52,7.36,3.01,1.00,5.39,,,
2023-03-16 19:00,27.5,,,1012.98,251.80,5.97,6.62,3.06,1.00,5.08,,,
2023-03-16 20:00,27.5,,,1012.74,256.00,6.03,6.93,2.63,1.00,4.60,,,
2023-03-16 21:00,27.5,,,1013.34,281.70,4.73,5.73,2.64,1.00,3.93,,,
2023-03-16 22:00,27.1,,,1013.82,263.40,4.41,5.05,1.70,1.00,3.75,,,
2023-03-16 23:00,27.1,,,1014.00,238.10,3.69,4.28,1.39,1.00,2.94,,,
2023-03-17 00:00,27.0,,,1014.78,265.80,2.97,3.93,1.08,1.00,2.52,,,
2023-03-17 01:00,26.6,,,1015.38,351.46,7.64,8.62,4.12,1.00,6.29,,,
2023-03-17 02:00,26.5,,,1015.92,350.90,4.06,4.50,1.95,1.00,3.30,,,
2023-03-17 03:00,26.4,,,1015.74,355.47,3.81,4.39,2.01,1.00,3.20,,,
2023-03-17 04:00,26.2,,,1015.56,344.50,3.67,4.06,1.56,1.00,2.67,,,
2023-03-17 05:00,25.6,,,1014.78,291.90,2.84,3.43,1.10,1.00,2.09,,,
2023-03-17 06:00,25.9,,,1013.82,9.61,4.48,4.85,2.08,1.00,3.35,,,
2023-03-17 07:00,25.5,,,1013.16,11.15,9.12,9.79,3.78,1.00,6.36,,,
2023-03-17 08:00,24.3,,,1013.46,33.65,3.11,3.39,1.22,1.00,1.95,,,
2023-03-17 09:00,25.6,,,1013.64,31.56,6.54,7.09,3.70,1.00,5.29,,,
2023-03-17 10:00,25.7,,,1014.24,32.47,6.58,7.13,3.36,1.00,5.39,,,
2023-03-17 11:00,25.8,,,1014.90,42.12,7.15,8.00,4.00,1.00,5.82,,,
2023-03-17 12:00,24.5,,,1015.80,17.10,11.26,11.87,3.35,1.00,7.80,,,
2023-03-17 13:00,25.5,,,1016.52,34.21,9.72,10.30,5.12,1.00,7.20,,,
2023-03-17 14:00,25.9,,,1016.88,46.13,10.12,11.02,5.28,1.00,7.69,,,
2023-03-17 15:00,25.9,,,1016.94,46.41,10.49,11.68,5.23,1.00,8.54,,,
2023-03-17 16:00,26.0,,,1016.70,57.29,11.01,12.30,5.63,1.00,9.02,,,
2023-03-17 17:00,25.6,,,1015.86,61.26,10.99,11.97,5.40,1.00,9.40,,,
2023-03-17 18:00,25.8,,,1015.26,52.67,10.86,11.58,4.73,1.00,9.47,,,
2023-03-17 19:00,25.9,,,1014.96,60.78,10.65,11.67,5.61,1.00,8.66,,,
2023-03-17 20:00,25.9,,,1014.84,60.05,10.18,11.24,5.68,1.00,8.74,,,
2023-03-17 21:00,25.9,,,1015.20,58.50,10.05,11.30,5.65,1.00,8.81,,,
2023-03-17 22:00,25.7,,,1015.62,57.14,10.10,11.16,5.17,1.00,8.34,,,
2023-03-17 23:00,25.6,,,1016.40,51.01,9.99,10.53,4.95,1.00,7.71,,,
2023-03-18 00:00,25.5,,,1016.94,60.89,10.61,11.20,5.29,1.00,8.37,,,
2023-03-18 01:00,25.5,,,1017.66,40.03,9.75,10.69,5.62,1.00,8.20,,,
2023-03-18 02:00,25.6,,,1018.02,41.66,9.15,10.41,3.75,1.00,7.48,,,
2023-03-18 03:00,25.6,,,1017.96,52.61,9.54,10.65,4.48,1.00,8.01,,,
2023-03-18 04:00,25.2,,,1017.60,43.22,9.68,10.66,4.69,1.00,7.72,,,
2023-03-18 05:00,25.2,,,1016.76,42.38,10.43,11.19,4.86,1.00,8.12,,,
2023-03-18 06:00,25.1,,,1015.92,44.19,10.31,11.38,5.40,1.00,8.50,,,
2023-03-18 07:00,25.0,,,1015.62,44.86,10.13,10.68,4.97,1.00,8.13,,,
2023-03-18 08:00,25.0,,,1015.62,45.28,8.96,9.88,3.55,1.00,7.32,,,
2023-03-18 09:00,24.8,,,1015.92,55.86,9.10,10.17,4.79,1.00,8.13,,,
2023-03-18 10:00,25.0,,,1016.58,51.55,9.57,10.55,4.28,1.00,7.43,,,
2023-03-18 11:00,25.2,,,1017.30,59.93,9.48,10.70,4.15,1.00,7.84,,,
2023-03-18 12:00,25.4,,,1018.14,50.73,8.76,9.93,4.66,1.00,7.23,,,
2023-03-18 13:00,25.8,,,1018.68,64.43,7.95,9.10,3.01,1.00,6.66,,,
2023-03-18 14:00,25.8,,,1018.98,66.80,9.65,11.46,4.16,1.00,7.68,,,
2023-03-18 15:00,25.9,,,1018.74,74.00,11.76,13.09,4.88,1.00,8.87,,,
2023-03-18 16:00,26.1,,,1018.44,76.80,9.37,10.46,4.80,1.00,8.13,,,
2023-03-18 17:00,25.9,,,1017.84,78.30,9.45,10.83,3.98,1.00,7.77,,,
2023-03-18 18:00,25.9,,,1016.88,84.10,10.39,11.38,4.75,1.00,8.44,,,
2023-03-18 19:00,25.9,,,1016.40,77.30,9.47,10.29,4.83,1.00,7.92,,,
2023-03-18 20:00,25.9,,,1016.22,81.00,9.37,10.51,4.83,1.00,7.89,,,
2023-03-18 21:00,26.1,,,1016.22,74.00,10.65,10.95,3.71,1.00,8.38,,,
2023-03-18 22:00,26.1,,,1016.46,76.90,10.11,11.08,4.37,1.00,8.41,,,
2023-03-18 23:00,25.9,,,1016.64,73.70,9.94,11.12,5.04,1.00,8.64,,,
2023-03-19 00:00,26.0,,,1017.24,74.80,11.43,12.86,5.89,1.00,9.24,,,
2023-03-19 01:00,26.0,,,1017.66,78.10,12.03,12.87,5.71,1.00,9.37,,,
2023-03-19 02:00,26.0,,,1018.26,82.80,11.74,12.78,5.33,1.00,9.71,,,
2023-03-19 03:00,26.0,,,1018.14,87.20,10.74,12.45,5.44,1.00,8.96,,,
2023-03-19 04:00,26.0,,,1017.96,83.30,10.48,11.14,5.17,1.00,8.53,,,
2023-03-19 05:00,26.0,,,1017.42,92.20,10.99,11.93,5.67,1.00,8.49,,,
2023-03-19 06:00,26.0,,,1016.64,82.00,10.10,11.34,5.14,1.00,8.21,,,
2023-03-19 07:00,26.0,,,1016.10,89.80,10.40,10.81,5.28,1.00,7.74,,,
2023-03-19 08:00,26.0,,,1015.92,77.00,9.82,11.03,4.35,1.00,8.04,,,
2023-03-19 09:00,25.9,,,1016.22,73.60,10.24,11.41,5.03,1.00,8.58,,,
2023-03-19 10:00,25.7,,,1016.58,68.60,10.72,11.72,4.27,1.00,7.98,,,
2023-03-19 11:00,25.9,,,1017.18,64.65,9.81,10.78,4.57,1.00,7.89,,,
2023-03-19 12:00,26.3,,,1017.72,85.30,10.47,11.36,5.73,1.00,8.65,,,
2023-03-19 13:00,26.4,,,1018.62,77.20,9.55,10.41,4.37,1.00,7.31,,,
2023-03-19 14:00,26.4,,,1018.86,73.60,10.22,11.69,4.29,1.00,8.60,,,
2023-03-19 15:00,26.7,,,1019.04,81.20,9.70,10.94,4.85,1.00,8.09,,,
2023-03-19 16:00,26.8,,,1018.74,84.10,9.39,10.67,3.99,1.00,7.75,,,
2023-03-19 17:00,26.6,,,1017.84,86.10,9.75,10.56,4.19,1.00,8.07,,,
2023-03-19 18:00,26.6,,,1017.00,80.60,10.10,11.28,5.15,1.00,8.32,,,
2023-03-19 19:00,26.6,,,1016.58,84.00,9.59,11.14,4.77,1.00,7.93,,,
2023-03-19 20:00,26.3,,,1016.34,88.70,10.13,11.41,4.95,1.00,8.15,,,
2023-03-19 21:00,26.1,,,1016.52,89.00,10.44,11.96,3.21,1.00,7.11,,,
2023-03-19 22:00,26.6,,,1016.76,75.50,11.29,11.55,5.32,1.00,8.87,,,
2023-03-19 23:00,26.6,,,1017.30,83.00,10.61,11.75,5.42,1.00,8.60,,,
2023-03-20 00:00,26.6,,,1017.84,86.40,10.69,11.65,5.61,1.00,8.64,,,
2023-03-20 01:00,26.6,,,1018.26,82.70,10.63,11.71,5.69,1.00,8.40,,,
2023-03-20 02:00,26.5,,,1018.68,88.90,11.04,12.66,6.33,1.00,9.66,,,
2023-03-20 03:00,26.5,,,1018.56,88.20,10.25,11.51,5.17,1.00,8.92,,,
2023-03-20 04:00,26.5,,,1018.38,84.80,9.98,11.35,4.85,1.00,8.49,,,
2023-03-20 05:00,26.4,,,1017.78,81.30,11.06,11.86,5.62,1.00,8.86,,,
2023-03-20 06:00,26.3,,,1017.06,74.40,9.25,10.42,5.42,1.00,7.83,,,
2023-03-20 07:00,26.2,,,1016.82,74.30,9.53,10.50,5.15,1.00,7.90,,,
2023-03-20 08:00,26.2,,,1016.46,83.20,9.72,10.54,5.24,1.00,8.20,,,
2023-03-20 09:00,26.4,,,1016.70,82.80,9.23,10.26,4.25,1.00,7.21,,,
2023-03-20 10:00,25.9,,,1017.42,100.00,9.00,10.07,3.61,1.00,6.91,,,
2023-03-20 11:00,26.4,,,1017.66,92.20,7.85,8.81,4.13,1.00,6.41,,,
2023-03-20 12:00,26.9,,,1018.56,89.40,9.16,9.86,4.59,1.00,7.59,,,
2023-03-20 13:00,26.6,,,1019.16,89.40,9.52,10.67,5.35,1.00,8.07,,,
2023-03-20 14:00,26.8,,,1019.64,94.10,9.32,10.55,5.00,1.00,7.91,,,
2023-03-20 15:00,26.8,,,1019.58,95.50,9.66,11.11,5.08,1.00,8.30,,,
2023-03-20 16:00,26.6,,,1019.16,89.90,9.27,10.37,4.72,1.00,7.34,,,
2023-03-20 17:00,26.8,,,1018.62,96.20,9.65,10.56,4.96,1.00,8.13,,,
2023-03-20 18:00,26.7,,,1017.96,87.70,7.91,9.46,4.07,1.00,7.18,,,
2023-03-20 19:00,26.8,,,1017.30,91.60,9.14,9.78,4.04,1.00,7.27,,,
2023-03-20 20:00,27.1,,,1017.12,93.60,8.08,8.89,4.05,1.00,6.50,,,
2023-03-20 21:00,26.9,,,1017.24,85.00,7.85,9.19,3.63,1.00,6.37,,,
2023-03-20 22:00,27.0,,,1017.42,86.40,9.18,10.17,4.65,1.00,7.76,,,
2023-03-20 23:00,26.8,,,1017.90,85.10,9.05,9.90,3.50,1.00,7.60,,,
2023-03-21 00:00,26.6,,,,76.90,9.63,10.39,4.82,1.00,7.95,,,
2023-03-21 01:00,26.6,,,1018.98,80.20,9.58,10.66,4.71,1.00,7.68,,,
2023-03-21 02:00,26.6,,,1019.40,72.20,9.25,9.96,4.05,1.00,7.22,,,
2023-03-21 03:00,26.6,,,1019.52,81.70,9.25,10.54,4.37,1.00,7.17,,,
2023-03-21 04:00,26.6,,,1019.34,89.50,8.81,10.07,4.30,1.00,7.38,,,
2023-03-21 05:00,26.6,,,1018.86,84.10,9.13,9.75,4.80,1.00,7.78,,,
2023-03-21 06:00,26.5,,,1018.20,87.60,9.21,10.21,4.61,1.00,7.37,,,
2023-03-21 07:00,26.4,,,1017.66,89.00,9.02,9.95,4.21,1.00,7.49,,,
2023-03-21 08:00,26.4,,,1017.30,89.40,9.37,10.27,4.09,1.00,7.43,,,
2023-03-21 09:00,26.4,,,1017.30,87.10,8.69,9.99,4.66,1.00,7.04,,,
2023-03-21 10:00,26.4,,,1017.66,80.60,8.94,10.33,4.66,1.00,7.86,,,
2023-03-21 11:00,26.5,,,1018.26,74.40,9.49,10.49,5.62,1.00,7.95,,,
2023-03-21 12:00,26.7,,,1018.92,79.00,9.38,10.88,4.23,1.00,7.58,,,
2023-03-21 13:00,26.8,,,1019.52,75.80,9.42,10.19,4.21,1.00,7.50,,,
2023-03-21 14:00,26.8,,,1019.94,81.70,9.05,10.39,4.49,1.00,7.69,,,
2023-03-21 15:00,26.9,,,1020.12,81.40,8.79,10.45,4.77,1.00,7.54,,,
2023-03-21 16:00,26.8,,,1019.58,75.10,9.34,10.81,4.81,1.00,7.97,,,
2023-03-21 17:00,26.8,,,1018.86,86.10,9.85,11.14,5.46,1.00,8.07,,,
2023-03-21 18:00,26.9,,,1017.84,77.30,11.65,12.46,5.83,1.00,9.10,,,
2023-03-21 19:00,26.9,,,1017.36,79.70,10.03,11.16,4.82,1.00,8.18,,,
2023-03-21 20:00,27.0,,,1016.88,72.40,10.18,11.52,4.79,1.00,8.47,,,
2023-03-21 21:00,26.9,,,1016.82,76.40,9.49,10.67,3.48,1.00,8.00,,,
2023-03-21 22:00,26.6,,,1017.00,75.30,11.19,12.92,5.42,1.00,8.85,,,
2023-03-21 23:00,26.6,,,1017.24,76.90,9.84,11.10,5.10,1.00,8.25,,,
2023-03-22 00:00,26.6,,,1017.60,76.60,10.88,12.32,5.76,1.00,8.90,,,
2023-03-22 01:00,,,,,,,,,,,,,
2023-03-22 02:00,26.6,,,1018.68,74.50,10.95,11.48,5.86,1.00,9.18,,,
2023-03-22 03:00,26.5,,,1018.98,71.60,10.00,10.86,4.41,1.00,8.05,,,
2023-03-22 04:00,26.4,,,1018.74,71.70,9.33,10.29,5.03,1.00,8.14,,,
2023-03-22 05:00,26.4,,,1018.08,77.70,9.88,11.21,5.49,1.00,8.39,,,
2023-03-22 06:00,26.3,,,1017.12,78.90,10.50,11.42,5.34,1.00,8.88,,,
2023-03-22 07:00,26.3,,,1016.22,76.40,9.87,11.77,4.97,1.00,7.82,,,
2023-03-22 08:00,26.3,,,1015.92,72.50,10.35,11.03,5.05,1.00,8.53,,,
2023-03-22 09:00,26.3,,,1016.28,63.26,7.82,9.02,4.74,1.00,7.00,,,
2023-03-22 10:00,26.3,,,1016.58,63.50,9.49,10.41,4.84,1.00,8.08,,,
2023-03-22 11:00,25.5,,,1017.30,69.80,9.14,10.62,3.67,1.00,6.66,,,
2023-03-22 12:00,26.1,,,1017.78,57.59,9.19,10.16,4.22,1.00,7.50,,,
2023-03-22 13:00,26.3,,,1018.26,54.08,9.00,10.03,4.40,1.00,6.89,,,
2023-03-22 14:00,26.5,,,1018.44,63.54,10.21,11.29,4.86,1.00,7.91,,,
2023-03-22 15:00,26.3,,,1018.38,64.51,10.72,12.02,4.47,1.00,8.48,,,
2023-03-22 16:00,26.6,,,1018.02,69.60,9.36,11.30,5.21,1.00,7.96,,,
2023-03-22 17:00,26.3,,,1017.48,67.70,10.25,11.22,4.39,1.00,7.88,,,
2023-03-22 18:00,26.6,,,1016.76,71.30,10.40,11.04,4.72,1.00,7.68,,,
2023-03-22 19:00,26.9,,,1016.04,71.00,11.09,11.40,4.36,1.00,7.71,,,
2023-03-22 20:00,27.1,,,1015.80,64.23,9.46,10.32,5.11,1.00,7.54,,,
2023-03-22 21:00,25.8,,,1015.98,59.30,10.25,10.81,5.44,1.00,8.64,,,
2023-03-22 22:00,26.0,,,1016.22,53.17,7.32,7.97,3.33,1.00,5.80,,,
2023-03-22 23:00,26.5,,,1016.52,64.87,10.11,11.46,4.40,1.00,7.50,,,
2023-03-23 00:00,26.4,,,1017.00,59.27,8.68,9.94,4.53,1.00,6.84,,,
2023-03-23 01:00,26.4,,,1017.66,63.12,10.15,11.23,5.65,1.00,8.15,,,
2023-03-23 02:00,26.3,,,1018.20,62.41,8.77,10.00,4.43,1.00,7.09,,,
2023-03-23 03:00,26.4,,,1018.32,76.30,8.76,9.81,5.69,1.00,7.81,,,
2023-03-23 04:00,26.3,,,1018.02,73.80,9.19,9.97,3.34,1.00,7.86,,,
2023-03-23 05:00,26.2,,,1017.24,69.50,9.44,10.95,5.34,1.00,8.05,,,
2023-03-23 06:00,26.1,,,1016.34,71.20,8.85,9.95,4.09,1.00,7.10,,,
2023-03-23 08:00,25.9,,,1015.74,65.05,7.64,8.87,3.65,1.00,6.38,,,
2023-03-23 09:00,25.9,,,1015.74,59.45,8.66,9.47,4.01,1.00,6.81,,,
2023-03-23 10:00,25.9,,,1016.22,54.86,8.01,9.23,4.47,1.00,6.66,,,
2023-03-23 11:00,26.0,,,1016.82,59.89,8.46,9.53,3.72,1.00,6.73,,,
2023-03-23 12:00,26.1,,,1017.06,65.03,8.23,9.19,4.05,1.00,6.63,,,
2023-03-23 13:00,26.2,,,1017.54,56.27,9.33,10.57,4.90,1.00,8.08,,,
2023-03-23 14:00,26.2,,,1017.96,43.96,9.36,10.70,4.88,1.00,7.89,,,
2023-03-23 15:00,26.4,,,1018.26,56.28,9.75,10.83,5.55,1.00,7.69,,,
2023-03-23 16:00,26.5,,,1018.02,54.67,9.30,10.58,4.48,1.00,7.50,,,
2023-03-23 17:00,26.7,,,1017.54,57.99,8.51,9.31,4.81,1.00,6.90,,,
2023-03-23 18:00,26.8,,,1016.58,61.84,8.39,10.00,4.03,1.00,6.67,,,
2023-03-23 19:00,26.9,,,1015.80,62.77,7.99,9.13,4.20,1.00,7.22,,,
2023-03-23 20:00,26.8,,,1015.14,66.70,8.22,9.15,4.09,1.00,6.57,,,
2023-03-23 21:00,26.8,,,1014.84,63.75,8.31,9.57,4.30,1.00,7.20,,,
2023-03-23 22:00,26.5,,,1015.02,55.26,8.18,8.94,3.77,1.00,6.42,,,
2023-03-23 23:00,26.3,,,1015.32,63.39,8.08,9.27,4.08,1.00,6.31,,,
2023-03-24 00:00,26.2,,,1016.10,62.45,8.12,9.15,3.70,1.00,6.28,,,
2023-03-24 01:00,26.1,,,1016.70,58.82,7.97,8.89,4.31,1.00,6.79,,,
2023-03-24 02:00,26.0,,,1017.06,61.77,7.65,8.42,4.16,1.00,6.37,,,
2023-03-24 03:00,26.2,,,1017.24,70.90,8.30,8.80,3.93,1.00,6.46,,,
2023-03-24 04:00,26.1,,,1017.18,57.49,8.43,8.84,3.94,1.00,6.66,,,
2023-03-24 05:00,26.0,,,1016.70,67.50,7.64,8.53,3.53,1.00,6.33,,,
2023-03-24 06:00,26.0,,,1015.92,77.70,7.56,8.64,3.93,1.00,6.37,,,
2023-03-24 07:00,26.1,,,1015.26,62.89,7.56,8.68,3.60,1.00,5.95,,,
2023-03-24 08:00,26.0,,,1014.78,63.28,7.72,8.23,3.67,1.00,6.41,,,
2023-03-24 09:00,25.9,,,1014.54,70.40,8.74,9.19,4.48,1.00,6.93,,,
2023-03-24 10:00,26.0,,,1015.14,73.60,8.63,9.23,4.76,1.00,6.81,,,
2023-03-24 11:00,26.1,,,1015.80,79.40,9.03,10.47,4.10,1.00,7.29,,,
2023-03-24 12:00,26.3,,,1016.58,79.30,8.66,9.90,4.61,1.00,7.05,,,
2023-03-24 13:00,26.5,,,1017.00,77.60,9.20,10.06,3.73,1.00,7.48,,,
2023-03-24 14:00,26.4,,,1017.06,71.40,9.48,10.62,5.17,1.00,7.68,,,
2023-03-24 15:00,26.4,,,1016.70,86.90,9.51,10.53,5.21,1.00,7.86,,,
2023-03-24 16:00,26.4,,,1016.46,79.50,8.23,9.04,3.22,1.00,6.33,,,
2023-03-24 17:00,26.4,,,1015.68,69.60,8.10,9.72,4.42,1.00,7.04,,,
2023-03-24 18:00,26.5,,,1015.14,73.30,7.78,8.96,3.38,1.00,6.75,,,
2023-03-24 19:00,26.7,,,1014.48,73.20,8.41,9.73,4.56,1.00,7.01,,,
2023-03-24 20:00,26.9,,,1014.00,77.90,8.78,9.76,5.16,1.00,7.56,,,
2023-03-24 21:00,26.9,,,1014.06,77.00,8.34,9.49,3.53,1.00,7.06,,,
2023-03-24 22:00,26.8,,,1014.60,69.10,8.13,9.06,3.14,1.00,6.91,,,
2023-03-24 23:00,26.5,,,1015.02,62.98,8.43,9.15,3.71,1.00,7.01,,,
2023-03-25 00:00,26.4,,,1015.86,49.00,7.90,8.80,4.39,1.00,6.63,,,
2023-03-25 01:00,26.2,,,1016.34,45.37,8.14,9.19,4.36,1.00,7.21,,,
2023-03-25 02:00,26.5,,,1016.76,52.87,8.95,10.35,4.35,1.00,7.26,,,
2023-03-25 03:00,26.3,,,1016.94,58.24,8.84,9.40,3.63,1.00,6.89,,,
2023-03-25 04:00,26.4,,,1016.64,72.30,8.86,10.14,3.58,1.00,7.51,,,
2023-03-25 05:00,26.3,,,1015.92,69.40,10.86,11.59,4.78,1.00,8.01,,,
2023-03-25 06:00,26.0,,,1015.26,66.90,8.92,10.02,4.79,1.00,7.20,,,
2023-03-25 07:00,26.0,,,1014.66,73.20,11.03,12.18,6.02,1.00,8.79,,,
2023-03-25 08:00,26.1,,,1014.60,81.90,10.52,12.18,4.33,1.00,8.42,,,
2023-03-25 09:00,26.1,,,1015.02,76.40,10.35,11.48,5.36,1.00,8.31,,,
2023-03-25 10:00,26.2,,,1015.74,78.50,10.34,11.56,4.71,1.00,8.57,,,
2023-03-25 11:00,26.2,,,1016.76,76.60,10.08,11.06,5.10,1.00,8.31,,,
2023-03-25 12:00,26.4,,,1017.36,72.00,11.13,12.09,5.89,1.00,9.03,,,
2023-03-25 13:00,26.4,,,1018.02,75.00,10.81,11.40,5.18,1.00,8.73,,,
2023-03-25 14:00,26.5,,,1018.20,76.50,10.19,11.33,5.07,1.00,8.47,,,
2023-03-25 15:00,26.4,,,1018.32,73.10,9.85,10.98,4.17,1.00,7.78,,,
2023-03-25 16:00,26.5,,,1017.78,79.10,9.92,10.89,5.31,1.00,8.01,,,
2023-03-25 17:00,26.5,,,1017.06,78.40,9.97,11.18,4.95,1.00,7.65,,,
2023-03-25 18:00,26.5,,,1016.40,76.40,8.44,9.53,3.73,1.00,6.72,,,
2023-03-25 19:00,26.5,,,1015.62,80.90,9.15,9.85,4.91,1.00,7.02,,,
2023-03-25 20:00,26.7,,,1015.44,78.30,8.21,9.20,3.97,1.00,6.69,,,
2023-03-25 21:00,26.9,,,1015.68,75.50,8.62,9.77,4.42,1.00,7.13,,,
2023-03-25 22:00,26.6,,,1016.04,70.60,8.19,9.51,4.46,1.00,7.06,,,
2023-03-25 23:00,26.4,,,1016.28,69.90,9.08,10.20,3.89,1.00,7.51,,,
2023-03-26 00:00,26.4,,,1017.12,71.50,9.56,10.52,4.64,1.00,7.38,,,
2023-03-26 01:00,26.4,,,1017.72,62.66,9.11,10.35,4.70,1.00,7.66,,,
2023-03-26 02:00,26.3,,,1017.96,62.61,8.64,9.89,3.92,1.00,7.54,,,
2023-03-26 03:00,26.3,,,1018.08,67.00,8.81,9.48,5.05,1.00,7.42,,,
2023-03-26 04:00,26.4,,,1017.78,71.80,9.49,10.57,4.70,1.00,8.05,,,
2023-03-26 05:00,26.2,,,1017.18,73.30,9.69,10.68,4.74,1.00,8.26,,,
2023-03-26 06:00,26.2,,,1016.58,75.20,8.82,10.45,4.25,1.00,7.49,,,
2023-03-26 07:00,26.2,,,1016.34,88.20,8.50,9.58,3.97,1.00,6.88,,,
2023-03-26 08:00,26.1,,,1016.52,85.60,8.50,9.80,4.53,1.00,6.93,,,
2023-03-26 09:00,26.1,,,1017.00,88.90,8.46,9.60,4.57,1.00,7.36,,,
2023-03-26 10:00,26.2,,,1017.66,86.40,8.17,9.02,3.55,1.00,6.73,,,
2023-03-26 11:00,26.4,,,1018.26,79.30,8.98,10.72,2.88,1.00,6.20,,,
2023-03-26 12:00,26.3,,,1018.80,76.90,7.34,8.03,2.58,1.00,4.88,,,
2023-03-26 13:00,26.7,,,1019.46,90.90,7.46,9.22,3.52,1.00,6.17,,,
2023-03-26 14:00,26.8,,,1019.46,91.10,8.60,9.73,4.70,1.00,6.96,,,
2023-03-26 15:00,26.7,,,,95.20,8.99,10.25,3.58,1.00,7.36,,,
2023-03-26 16:00,26.8,,,1019.04,95.70,8.54,9.83,2.95,1.00,6.97,,,
2023-03-26 17:00,26.7,,,1018.20,98.70,9.20,10.02,4.70,1.00,7.68,,,
2023-03-26 18:00,26.6,,,1017.78,101.90,7.22,8.40,3.32,1.00,6.16,,,
2023-03-26 19:00,26.8,,,1017.00,93.60,7.23,7.91,3.40,1.00,5.82,,,
2023-03-26 20:00,27.0,,,1016.70,87.60,6.27,6.95,3.02,1.00,4.72,,,
2023-03-26 21:00,27.4,,,1016.58,83.00,7.98,8.55,3.85,1.00,6.62,,,
2023-03-26 22:00,27.2,,,1016.70,81.90,8.88,9.70,4.87,1.00,7.13,,,
2023-03-26 23:00,26.7,,,1016.82,72.20,8.70,9.81,3.81,1.00,7.43,,,
2023-03-27 00:00,26.6,,,1017.30,76.60,9.98,11.56,4.09,1.00,7.97,,,
2023-03-27 01:00,26.5,,,1018.02,73.60,10.01,10.57,4.89,1.00,7.83,,,
2023-03-27 02:00,26.5,,,1018.38,67.70,10.16,11.60,4.64,1.00,7.95,,,
2023-03-27 03:00,26.4,,,1018.38,65.95,9.83,10.71,4.39,1.00,7.78,,,
2023-03-27 04:00,26.4,,,1018.20,72.10,10.47,11.31,5.71,1.00,8.80,,,
2023-03-27 05:00,26.3,,,1017.78,77.10,10.17,11.28,5.26,1.00,8.81,,,
2023-03-27 06:00,26.3,,,,81.60,10.44,11.45,5.23,1.00,8.26,,,
2023-03-27 07:00,26.2,,,1016.76,77.90,10.82,11.98,5.94,1.00,8.59,,,
2023-03-27 08:00,26.1,,,1016.34,80.80,9.86,11.28,4.27,1.00,8.21,,,
2023-03-27 09:00,26.1,,,1016.64,79.00,9.76,10.33,4.26,1.00,7.76,,,
2023-03-27 10:00,25.6,,,1017.24,92.40,9.53,10.13,4.53,1.00,7.66,,,
2023-03-27 11:00,26.0,,,1018.08,82.30,8.20,9.35,3.51,1.00,6.64,,,
2023-03-27 12:00,26.0,,,1018.62,88.00,7.85,8.64,3.76,1.00,5.93,,,
2023-03-27 13:00,26.6,,,1018.92,99.30,9.69,10.79,4.81,1.00,7.65,,,
2023-03-27 14:00,26.6,,,1019.46,87.80,9.52,10.67,4.94,1.00,7.70,,,
2023-03-27 15:00,26.6,,,1019.40,87.00,9.20,10.59,4.46,1.00,7.23,,,
2023-03-27 16:00,26.5,,,1018.92,79.70,8.52,9.43,3.50,1.00,7.07,,,
2023-03-27 17:00,26.7,,,1018.32,78.60,9.20,10.45,4.31,1.00,7.74,,,
2023-03-27 18:00,26.6,,,1017.84,79.80,9.26,10.60,4.33,1.00,8.04,,,
2023-03-27 19:00,26.7,,,1017.00,81.90,8.69,9.76,4.44,1.00,6.81,,,
2023-03-27 20:00,26.9,,,1016.58,83.20,8.36,9.37,4.03,1.00,7.04,,,
2023-03-27 21:00,27.0,,,1016.64,74.90,8.72,9.74,4.79,1.00,7.26,,,
2023-03-27 22:00,26.8,,,1016.82,76.20,8.23,9.32,4.07,1.00,6.89,,,
2023-03-27 23:00,26.5,,,1017.06,73.00,8.61,9.75,4.57,1.00,6.88,,,
2023-03-28 00:00,26.4,,,1017.54,72.30,9.12,9.85,4.75,1.00,7.21,,,
2023-03-28 01:00,26.4,,,1018.08,82.70,8.52,9.65,3.24,1.00,7.24,,,
2023-03-28 02:00,26.5,,,1018.38,75.30,9.04,9.79,4.13,1.00,7.25,,,
2023-03-28 03:00,26.4,,,1018.20,78.60,9.33,10.36,4.42,1.00,7.50,,,
2023-03-28 04:00,26.3,,,1017.48,72.60,9.89,11.04,4.53,1.00,7.84,,,
2023-03-28 05:00,26.2,,,1017.12,73.30,9.54,10.76,3.91,1.00,8.21,,,
2023-03-28 06:00,26.2,,,1016.52,74.00,9.80,10.72,5.52,1.00,8.13,,,
2023-03-28 07:00,26.1,,,1016.46,76.50,8.72,9.86,4.05,1.00,7.39,,,
2023-03-28 08:00,26.1,,,1016.58,77.70,9.37,10.46,4.42,1.00,7.46,,,
2023-03-28 09:00,26.2,,,1016.76,77.90,8.26,9.03,4.33,1.00,6.63,,,
2023-03-28 10:00,26.2,,,1017.18,86.50,8.36,9.25,3.42,1.00,7.13,,,
2023-03-28 11:00,26.3,,,1017.48,89.60,8.69,9.97,4.36,1.00,7.41,,,
2023-03-28 12:00,26.5,,,1017.96,86.10,8.85,9.86,3.63,1.00,7.11,,,
2023-03-28 13:00,26.4,,,1018.32,83.10,8.02,8.71,3.95,1.00,6.81,,,
2023-03-28 14:00,26.5,,,1018.14,80.10,8.69,9.33,4.37,1.00,7.22,,,
2023-03-28 15:00,26.5,,,1018.08,75.10,8.85,10.13,4.93,1.00,7.25,,,
2023-03-28 16:00,26.5,,,1017.54,80.90,8.23,9.36,3.60,1.00,6.79,,,
2023-03-28 17:00,26.5,,,1016.88,81.20,8.74,9.78,4.33,1.00,7.28,,,
2023-03-28 18:00,26.6,,,1016.28,82.60,8.05,9.19,4.26,1.00,6.91,,,
2023-03-28 19:00,26.6,,,1015.74,85.00,8.42,9.29,3.26,1.00,7.02,,,
2023-03-28 20:00,26.5,,,1015.32,69.70,7.60,8.42,3.47,1.00,6.33,,,
2023-03-28 21:00,26.8,,,1015.26,77.90,7.51,8.44,3.66,1.00,6.20,,,
2023-03-28 22:00,26.6,,,1015.38,78.30,7.48,8.22,3.98,1.00,5.79,,,
2023-03-28 23:00,26.2,,,1015.62,71.80,7.65,8.85,4.04,1.00,6.22,,,
2023-03-29 00:00,26.1,,,1016.10,59.74,7.21,8.08,2.20,1.00,5.81,,,
2023-03-29 01:00,26.3,,,1016.70,59.22,7.06,8.49,3.31,1.00,5.68,,,
2023-03-29 02:00,26.5,,,1017.00,63.14,7.43,8.18,3.02,1.00,5.43,,,
2023-03-29 03:00,26.4,,,1016.82,74.70,8.58,9.40,4.29,1.00,7.02,,,
2023-03-29 04:00,26.3,,,1016.40,75.90,7.71,8.85,3.56,1.00,6.75,,,
2023-03-29 05:00,26.2,,,1015.86,64.57,6.96,8.07,3.42,1.00,5.34,,,
2023-03-29 06:00,26.2,,,1015.20,78.90,8.02,9.24,4.06,1.00,6.73,,,
2023-03-29 07:00,26.2,,,1014.84,93.60,8.38,9.35,3.88,1.00,6.49,,,
2023-03-29 08:00,26.0,,,1014.66,87.10,8.25,9.14,3.18,1.00,6.03,,,
2023-03-29 09:00,26.2,,,1014.96,77.80,10.22,11.04,4.95,1.00,8.54,,,
2023-03-29 10:00,26.1,,,1015.62,71.10,10.52,11.59,5.76,1.00,8.98,,,
2023-03-29 11:00,26.3,,,1016.34,77.70,10.17,11.75,5.60,1.00,8.64,,,
2023-03-29 12:00,26.5,,,1016.88,73.90,10.53,11.38,5.66,1.00,8.05,,,
2023-03-29 13:00,26.5,,,1017.12,81.70,10.36,11.09,4.90,1.00,8.88,,,
2023-03-29 14:00,26.5,,,1017.42,80.10,9.71,11.11,5.61,1.00,8.38,,,
2023-03-29 15:00,26.5,,,1017.12,84.30,9.31,10.25,5.25,1.00,8.03,,,
2023-03-29 16:00,26.5,,,1016.70,88.30,9.14,9.95,4.54,1.00,7.70,,,
2023-03-29 17:00,26.6,,,1016.04,87.10,7.79,9.29,3.90,1.00,6.60,,,
2023-03-29 18:00,26.7,,,1015.56,88.50,7.32,7.92,3.50,1.00,5.59,,,
2023-03-29 19:00,26.8,,,1014.90,89.10,7.26,8.24,3.48,1.00,5.99,,,
2023-03-29 20:00,27.1,,,1014.66,90.60,7.12,8.45,3.95,1.00,5.86,,,
2023-03-29 21:00,27.2,,,1014.54,81.10,6.97,7.46,3.21,1.00,5.65,,,
2023-03-29 22:00,26.9,,,1014.84,81.80,6.46,7.35,2.96,1.00,5.70,,,
2023-03-29 23:00,26.6,,,1015.26,76.00,6.69,7.80,2.91,1.00,5.71,,,
2023-03-30 00:00,26.6,,,1015.80,80.10,7.53,8.38,3.41,1.00,6.29,,,
2023-03-30 01:00,26.5,,,1016.22,74.00,7.76,8.41,4.06,1.00,6.41,,,
2023-03-30 02:00,26.6,,,1016.58,68.80,7.77,8.51,3.81,1.00,6.35,,,
2023-03-30 03:00,26.5,,,1016.46,77.20,8.72,9.62,3.93,1.00,7.24,,,
2023-03-30 04:00,26.5,,,1016.10,74.80,8.64,9.52,3.92,1.00,7.32,,,